Tillbaka till svenska Fidonet
English   Information   Debug  
FILM   0/18
FNEWS_PUBLISH   4881
FN_SYSOP   42085
FN_SYSOP_OLD1   71952
FTP_FIDO   0/2
FTSC_PUBLIC   0/13948
FUNNY   0/4886
GENEALOGY.EUR   0/71
GET_INFO   105
GOLDED   0/408
HAM   2919/16617
HOLYSMOKE   0/6791
HOT_SITES   0/1
HTMLEDIT   0/71
HUB203   466
HUB_100   264
HUB_400   39
HUMOR   0/29
IC   1956/2851
INTERNET   0/424
INTERUSER   0/3
IP_CONNECT   719
JAMNNTPD   0/233
JAMTLAND   0/47
KATTY_KORNER   0/41
LAN   0/16
LINUX-USER   0/19
LINUXHELP   0/1155
LINUX   0/22287
LINUX_BBS   0/957
mail   18.68
mail_fore_ok   249
MENSA   0/341
MODERATOR   0/102
MONTE   0/992
MOSCOW_OKLAHOMA   0/1245
MUFFIN   0/783
MUSIC   0/321
N203_STAT   938
N203_SYSCHAT   313
NET203   321
NET204   69
NET_DEV   0/10
NORD.ADMIN   0/101
NORD.CHAT   0/2572
NORD.FIDONET   189
NORD.HARDWARE   0/28
NORD.KULTUR   0/114
NORD.PROG   0/32
NORD.SOFTWARE   0/88
NORD.TEKNIK   0/58
NORD   0/453
OCCULT_CHAT   0/93
OS2BBS   0/787
OS2DOSBBS   0/580
OS2HW   0/42
OS2INET   0/37
OS2LAN   0/134
OS2PROG   0/36
OS2REXX   0/113
OS2USER-L   207
OS2   0/4829
OSDEBATE   4000/18996
PASCAL   0/490
PERL   0/457
PHP   0/45
POINTS   0/405
POLITICS   0/29554
POL_INC   14383/14731
PSION   103
R20_ADMIN   1133
R20_AMATORRADIO   0/2
R20_BEST_OF_FIDONET   16
R20_CHAT   0/896
R20_DEPP   0/3
R20_DEV   400
R20_ECHO2   1788
R20_ECHOPRES   0/35
R20_ESTAT   0/719
R20_FIDONETPROG...
...RAM.MYPOINT
  0/2
R20_FIDONETPROGRAM   0/22
R20_FIDONET   0/248
R20_FILEFIND   0/24
R20_FILEFOUND   0/22
R20_HIFI   0/3
R20_INFO2   3681
R20_INTERNET   0/12940
R20_INTRESSE   0/60
R20_INTR_KOM   0/99
R20_KANDIDAT.CHAT   42
R20_KANDIDAT   28
R20_KOM_DEV   112
R20_KONTROLL   0/13360
R20_KORSET   0/18
R20_LOKALTRAFIK   0/24
R20_MODERATOR   0/1852
R20_NC   76
R20_NET200   245
R20_NETWORK.OTH...
...ERNETS
  0/13
R20_OPERATIVSYS...
...TEM.LINUX
  0/44
R20_PROGRAMVAROR   0/1
R20_REC2NEC   534
R20_SFOSM   0/341
R20_SF   0/108
R20_SPRAK.ENGLISH   0/1
R20_SQUISH   107
R20_TEST   2
R20_WORST_OF_FIDONET   20
RAR   0/9
RA_MULTI   106
RA_UTIL   0/162
REGCON.EUR   0/2067
REGCON   0/13
SCIENCE   0/1206
SF   0/239
SHAREWARE_SUPPORT   0/5146
SHAREWRE   0/14
SIMPSONS   0/169
STATS_OLD1   0/2539.065
STATS_OLD2   0/2530
STATS_OLD3   0/2395.095
STATS_OLD4   0/1692.25
SURVIVOR   0/495
SYSOPS_CORNER   0/3
SYSOP   0/84
TAGLINES   0/112
TEAMOS2   0/4530
TECH   0/2617
TEST.444   0/105
TRAPDOOR   0/19
TREK   0/755
TUB   0/290
UFO   0/40
UNIX   0/1316
USA_EURLINK   0/102
USR_MODEMS   0/1
VATICAN   0/2740
VIETNAM_VETS   0/14
VIRUS   0/378
VIRUS_INFO   0/201
VISUAL_BASIC   0/473
WHITEHOUSE   0/5187
WIN2000   0/101
WIN32   0/30
WIN95   0/4291
WIN95_OLD1   0/70272
WINDOWS   0/1517
WWB_SYSOP   0/419
WWB_TECH   0/810
ZCC-PUBLIC   0/1
ZEC   4

 
4DOS   0/134
ABORTION   0/7
ALASKA_CHAT   0/506
ALLFIX_FILE   0/1313
ALLFIX_FILE_OLD1   0/7997
ALT_DOS   0/152
AMATEUR_RADIO   0/1039
AMIGASALE   0/14
AMIGA   0/331
AMIGA_INT   0/1
AMIGA_PROG   0/20
AMIGA_SYSOP   0/26
ANIME   0/15
ARGUS   0/924
ASCII_ART   0/340
ASIAN_LINK   0/651
ASTRONOMY   0/417
AUDIO   0/92
AUTOMOBILE_RACING   0/105
BABYLON5   0/17862
BAG   135
BATPOWER   0/361
BBBS.ENGLISH   0/382
BBSLAW   0/109
BBS_ADS   0/5290
BBS_INTERNET   0/507
BIBLE   0/3563
BINKD   0/1119
BINKLEY   0/215
BLUEWAVE   0/2173
CABLE_MODEMS   0/25
CBM   0/46
CDRECORD   0/66
CDROM   0/20
CLASSIC_COMPUTER   0/378
COMICS   0/15
CONSPRCY   0/899
COOKING   41016
COOKING_OLD1   0/24719
COOKING_OLD2   0/40862
COOKING_OLD3   0/37489
COOKING_OLD4   0/35496
COOKING_OLD5   9370
C_ECHO   0/189
C_PLUSPLUS   0/31
DIRTY_DOZEN   0/201
DOORGAMES   0/2253
DOS_INTERNET   0/196
duplikat   6102
ECHOLIST   0/18295
EC_SUPPORT   0/318
ELECTRONICS   0/359
ELEKTRONIK.GER   1534
ENET.LINGUISTIC   0/13
ENET.POLITICS   0/4
ENET.SOFT   0/11701
ENET.SYSOP   34252
ENET.TALKS   0/32
ENGLISH_TUTOR   0/2000
EVOLUTION   0/1335
FDECHO   0/217
FDN_ANNOUNCE   0/7068
FIDONEWS   24977
FIDONEWS_OLD1   0/49742
FIDONEWS_OLD2   0/35949
FIDONEWS_OLD3   99/30874
FIDONEWS_OLD4   0/37224
FIDO_SYSOP   12920
FIDO_UTIL   0/180
FILEFIND   0/209
FILEGATE   0/212
Möte HAM, 16617 texter
 lista första sista föregående nästa
Text 3830, 880 rader
Skriven 2010-07-28 23:00:23 av Amsat List (1:323/120.0)
Ärende: [keps]  orb10210.amsa
=============================
[keps]  orb10210.amsa

Return-Path: <keps-bounces@amsat.org>
X-Rcpt: craig.healy@chowda.com
X-UIDL: 1280458939.1640

SB KEPS @ AMSAT  $ORB10210.O
Orbital Elements  10210.OSCAR

HR AMSAT ORBITAL ELEMENTS FOR OSCAR SATELLITES
FROM WA5QGD FORT WORTH,TX July 29, 2010
Send Subscribe/unsubscribe to KEPS at http://www.amsat.org/mailman/listinfo/kep
BID: ORB10210.O
TO ALL RADIO AMATEURS BT

Satellite: AO-07
Catalog number: 07530
Epoch time:      10209.62210797
Element set:    0840
Inclination:      101.4003 deg
RA of node:       223.8802 deg
Eccentricity:    0.0011700
Arg of perigee:   191.9888 deg
Mean anomaly:     168.0908 deg
Mean motion:   12.53578955 rev/day
Decay rate:       -2.7e-07 rev/day^2
Epoch rev:           63364
Checksum:              292

Satellite: FO-29
Catalog number: 24278
Epoch time:      10210.84875989
Element set:     364
Inclination:      098.5143 deg
RA of node:       034.0791 deg
Eccentricity:    0.0351102
Arg of perigee:   013.3400 deg
Mean anomaly:     347.6736 deg
Mean motion:   13.52951862 rev/day
Decay rate:       -3.2e-07 rev/day^2
Epoch rev:           68887
Checksum:              318

Satellite: SO-33
Catalog number: 25509
Epoch time:      10209.49588489
Element set:    0762
Inclination:      031.4354 deg
RA of node:       274.9197 deg
Eccentricity:    0.0354248
Arg of perigee:   291.0443 deg
Mean anomaly:     065.2642 deg
Mean motion:   14.28317140 rev/day
Decay rate:        7.4e-07 rev/day^2
Epoch rev:           61396
Checksum:              320

Satellite: RS-22
Catalog number: 27939
Epoch time:      10210.65218928
Element set:     404
Inclination:      097.8865 deg
RA of node:       074.3252 deg
Eccentricity:    0.0012514
Arg of perigee:   288.1174 deg
Mean anomaly:     071.8656 deg
Mean motion:   14.63436995 rev/day
Decay rate:        4.5e-07 rev/day^2
Epoch rev:           36516
Checksum:              321

Satellite: VO-52
Catalog number: 28650
Epoch time:      10209.66327654
Element set:    0564
Inclination:      097.6897 deg
RA of node:       261.4747 deg
Eccentricity:    0.0027749
Arg of perigee:   138.8476 deg
Mean anomaly:     221.4828 deg
Mean motion:   14.81779486 rev/day
Decay rate:       4.41e-06 rev/day^2
Epoch rev:           28283
Checksum:              361

Satellite: SO-67
Catalog number: 35870
Epoch time:      10210.88368295
Element set:     957
Inclination:      097.3287 deg
RA of node:       258.8837 deg
Eccentricity:    0.0002314
Arg of perigee:   342.4137 deg
Mean anomaly:     130.6659 deg
Mean motion:   15.20971675 rev/day
Decay rate:       5.89e-06 rev/day^2
Epoch rev:            4794
Checksum:              350

Satellite: HO-68
Catalog number: 36122
Epoch time:      10210.66067306
Element set:     531
Inclination:      100.4671 deg
RA of node:       270.6557 deg
Eccentricity:    0.0007139
Arg of perigee:   239.2684 deg
Mean anomaly:     120.7732 deg
Mean motion:   13.16281303 rev/day
Decay rate:       -4.5e-07 rev/day^2
Epoch rev:            2980
Checksum:              270

/EX
SB KEPS @ AMSAT  $ORB10210.D
Orbital Elements  10210.MICROS

HR AMSAT ORBITAL ELEMENTS FOR THE MICROSATS
FROM WA5QGD FORT WORTH,TX July 29, 2010
Send Subscribe/unsubscribe to KEPS at http://www.amsat.org/mailman/listinfo/kep
BID: ORB10210.D
TO ALL RADIO AMATEURS BT

Satellite: UO-11
Catalog number: 14781
Epoch time:      10209.67444704
Element set:    0300
Inclination:      098.0527 deg
RA of node:       261.5361 deg
Eccentricity:    0.0010211
Arg of perigee:   103.6563 deg
Mean anomaly:     256.5761 deg
Mean motion:   14.79819934 rev/day
Decay rate:       1.94e-06 rev/day^2
Epoch rev:           41794
Checksum:              294

Satellite: AO-16
Catalog number: 20439
Epoch time:      10209.41766535
Element set:    0957
Inclination:      098.3340 deg
RA of node:       165.7066 deg
Eccentricity:    0.0011795
Arg of perigee:   047.3332 deg
Mean anomaly:     312.8839 deg
Mean motion:   14.31868247 rev/day
Decay rate:        1.8e-07 rev/day^2
Epoch rev:           07128
Checksum:              314

Satellite: LO-19
Catalog number: 20442
Epoch time:      10209.47863785
Element set:    0866
Inclination:      098.2954 deg
RA of node:       171.4012 deg
Eccentricity:    0.0012651
Arg of perigee:   042.2184 deg
Mean anomaly:     317.9951 deg
Mean motion:   14.32098608 rev/day
Decay rate:       -4.0e-08 rev/day^2
Epoch rev:           07146
Checksum:              302

Satellite: AO-27
Catalog number: 22825
Epoch time:      10210.78576810
Element set:     589
Inclination:      098.4872 deg
RA of node:       157.6391 deg
Eccentricity:    0.0009151
Arg of perigee:   139.3693 deg
Mean anomaly:     220.8175 deg
Mean motion:   14.29303094 rev/day
Decay rate:        2.1e-07 rev/day^2
Epoch rev:           87813
Checksum:              317

Satellite: IO-26
Catalog number: 22826
Epoch time:      10209.79372510
Element set:     325
Inclination:      098.4816 deg
RA of node:       157.2584 deg
Eccentricity:    0.0009473
Arg of perigee:   137.0230 deg
Mean anomaly:     223.1699 deg
Mean motion:   14.29559489 rev/day
Decay rate:       -9.0e-08 rev/day^2
Epoch rev:           87810
Checksum:              325

Satellite: GO-32
Catalog number: 25397
Epoch time:      10209.58107129
Element set:     245
Inclination:      098.3125 deg
RA of node:       214.7530 deg
Eccentricity:    0.0002109
Arg of perigee:   121.4977 deg
Mean anomaly:     238.6402 deg
Mean motion:   14.23181548 rev/day
Decay rate:       -4.4e-07 rev/day^2
Epoch rev:           62593
Checksum:              287

